Flag Weather past 2 weeks in Ojinaga, Chihuahua, Mexico

Now
54 °F

Clear.


Feels Like: 53 °F
Forecast: 50 / 72 °F
Wind: 3 mph from Northeast

Location: Marfa Municipal Airport

Current Time: Nov 21, 2014 at 8:12:49 PM

Latest Report: Nov 21, 2014 at 7:55 PM


Visibility: 10 mi

Pressure: 30.01 "Hg

Humidity: 51%

Dew point: 36 °F

Location of OjinagaLocation

Historic Weather in Ojinaga — Graph

°F

Ojinaga temperature yesterday

Maximum temperature yesterday: 66 °F (at 11:35 AM)
Minimum temperature yesterday: 27 °F (at 12:35 AM)
Average temperature yesterday: 44 °F

Past Weeks' High & Low Weather Summary

 TemperatureHumidityPressure
High72 °F (Nov 10, 11:55 AM)100% (Nov 7, 4:35 AM)30.46 "Hg (Nov 7, 4:35 AM)
Low19 °F (Nov 13, 4:35 AM)16% (Nov 20, 3:55 PM)29.92 "Hg (Nov 10, 1:15 PM)
Average42 °F66%30.18 "Hg
* Reported Nov 6 6:15 PM — Nov 21 6:55 PM, Ojinaga, Weather by CustomWeather, © 2014

Note: Actual official high and low records may vary slightly from our data, if they occured in-between our weather recording intervals... More about our weather records

Advertising

Ojinaga weather history for previous 24 hours

 ConditionsComfort  
Time TempWeatherWind HumidityBarometerVisibility
6:55 PM
Nov 21
50 °FClear.No wind50%30.01 "Hg10 mi
6:35 PM54 °FClear.3 mph44%30.01 "Hg10 mi
6:15 PM55 °FClear.8 mph38%30.01 "Hg10 mi
5:55 PM54 °FClear.5 mph35%30.00 "Hg10 mi
5:35 PM54 °FClear.5 mph35%30.00 "Hg10 mi
5:15 PM57 °FClear.7 mph31%30.00 "Hg10 mi
4:55 PM61 °FSunny.3 mph27%30.00 "Hg10 mi
4:35 PM63 °FSunny.6 mph25%30.00 "Hg10 mi
4:15 PM64 °FSunny.9 mph24%30.00 "Hg10 mi
3:55 PM64 °FSunny.10 mph24%29.99 "Hg10 mi
3:35 PM66 °FSunny.12 mph24%29.99 "Hg10 mi
3:15 PM68 °FSunny.13 mph23%29.98 "Hg10 mi
2:35 PM70 °FSunny.13 mph21%30.00 "Hg10 mi
1:55 PM70 °FSunny.16 mph23%29.99 "Hg10 mi
1:35 PM70 °FSunny.16 mph23%30.00 "Hg10 mi
1:15 PM70 °FSunny.17 mph23%30.01 "Hg10 mi
12:55 PM68 °FSunny.12 mph28%30.02 "Hg10 mi
12:35 PM68 °FSunny.15 mph28%30.03 "Hg10 mi
12:15 PM66 °FSunny.12 mph30%30.05 "Hg10 mi
11:55 AM66 °FSunny.13 mph30%30.06 "Hg10 mi
11:35 AM66 °FSunny.12 mph32%30.08 "Hg10 mi
11:15 AM66 °FSunny.14 mph32%30.09 "Hg7 mi
10:55 AM66 °FSunny.13 mph32%30.11 "Hg10 mi
10:35 AM64 °FSunny.9 mph34%30.11 "Hg10 mi
10:15 AM64 °FSunny.13 mph34%30.13 "Hg10 mi
9:55 AM64 °FSunny.13 mph34%30.13 "Hg10 mi
9:35 AM63 °FSunny.12 mph37%30.13 "Hg10 mi
9:15 AM61 °FSunny.8 mph39%30.13 "Hg10 mi
8:55 AM57 °FSunny.5 mph41%30.12 "Hg10 mi
8:35 AM55 °FSunny.5 mph47%30.12 "Hg10 mi
8:15 AM54 °FSunny.No wind47%30.12 "Hg10 mi
7:55 AM46 °FSunny.No wind62%30.12 "Hg10 mi
7:35 AM43 °FSunny.3 mph61%30.11 "Hg10 mi
7:15 AM37 °FSunny.3 mph70%30.11 "Hg10 mi
6:55 AM32 °FSunny.5 mph80%30.11 "Hg10 mi
6:35 AM34 °FSunny.5 mph75%30.10 "Hg10 mi
6:15 AM34 °FClear.9 mph70%30.10 "Hg10 mi
5:55 AM32 °FClear.8 mph75%30.09 "Hg10 mi
5:35 AM32 °FClear.8 mph75%30.09 "Hg10 mi
5:15 AM34 °FClear.9 mph70%30.09 "Hg10 mi
4:55 AM34 °FClear.8 mph75%30.08 "Hg10 mi
4:35 AM32 °FClear.9 mph75%30.08 "Hg10 mi
3:55 AM30 °FClear.7 mph80%30.09 "Hg10 mi
3:35 AM30 °FClear.7 mph80%30.09 "Hg10 mi
2:55 AM32 °FClear.7 mph75%30.10 "Hg10 mi
2:35 AM32 °FClear.6 mph80%30.10 "Hg10 mi
2:15 AM30 °FClear.7 mph80%30.10 "Hg10 mi
1:55 AM32 °FClear.3 mph80%30.10 "Hg10 mi
1:35 AM30 °FClear.6 mph80%30.10 "Hg10 mi
1:15 AM30 °FClear.6 mph80%30.10 "Hg10 mi
12:55 AM30 °FClear.No wind80%30.10 "Hg10 mi
12:35 AM30 °FClear.5 mph80%30.10 "Hg10 mi
12:15 AM32 °FClear.5 mph75%30.11 "Hg10 mi
11:55 PM
Nov 20
34 °FClear.5 mph75%30.11 "Hg10 mi
11:35 PM34 °FClear.5 mph75%30.11 "Hg10 mi
11:15 PM34 °FClear.9 mph75%30.11 "Hg10 mi
10:55 PM32 °FClear.7 mph75%30.11 "Hg10 mi
10:35 PM34 °FClear.5 mph70%30.12 "Hg10 mi
10:15 PM34 °FClear.6 mph70%30.12 "Hg10 mi
9:55 PM34 °FClear.7 mph70%30.12 "Hg10 mi
9:35 PM36 °FClear.6 mph65%30.12 "Hg10 mi
9:15 PM36 °FClear.3 mph65%30.11 "Hg10 mi
8:55 PM37 °FClear.9 mph60%30.11 "Hg10 mi
8:35 PM36 °FClear.8 mph65%30.11 "Hg10 mi
8:15 PM36 °FClear.7 mph60%30.11 "Hg10 mi
Weather by CustomWeather, © 2014

See weather overviewHow to use our weather pages